"Time","Value","Approval","myLocation"
"2023-05-07 00:00",8.58263961205515,"Approved","OW293"
"2023-05-07 01:00",8.58703356845143,"Approved","OW293"
"2023-05-07 02:00",8.58472752484771,"Approved","OW293"
"2023-05-07 03:00",8.58522148124399,"Approved","OW293"
"2023-05-07 04:00",8.59681543764027,"Approved","OW293"
"2023-05-07 05:00",8.58530939403655,"Approved","OW293"
"2023-05-07 06:00",8.58550335043283,"Approved","OW293"
"2023-05-07 07:00",8.57849730682911,"Approved","OW293"
"2023-05-07 08:00",8.57349126322539,"Approved","OW293"
"2023-05-07 09:00",8.56968521962167,"Approved","OW293"
"2023-05-07 10:00",8.56607917601795,"Approved","OW293"
"2023-05-07 11:00",8.56097313241423,"Approved","OW293"
"2023-05-07 12:00",8.55706708881052,"Approved","OW293"
"2023-05-07 13:00",8.5524610452068,"Approved","OW293"
"2023-05-07 14:00",8.54895500160308,"Approved","OW293"
"2023-05-07 15:00",8.55464895799936,"Approved","OW293"
"2023-05-07 16:00",8.56384291439564,"Approved","OW293"
"2023-05-07 17:00",8.58993687079192,"Approved","OW293"
"2023-05-07 18:00",8.5952308271882,"Approved","OW293"
"2023-05-07 19:00",8.60312478358448,"Approved","OW293"
"2023-05-07 20:00",8.60771873998076,"Approved","OW293"
"2023-05-07 21:00",8.60241269637704,"Approved","OW293"
"2023-05-07 22:00",8.59440665277332,"Approved","OW293"
"2023-05-07 23:00",8.58620060916961,"Approved","OW293"
"2023-05-08 00:00",8.58099456556589,"Approved","OW293"
"2023-05-08 01:00",8.57958852196217,"Approved","OW293"
"2023-05-08 02:00",8.58178247835845,"Approved","OW293"
"2023-05-08 03:00",8.59367643475473,"Approved","OW293"
"2023-05-08 04:00",8.58507039115101,"Approved","OW293"
"2023-05-08 05:00",8.57606434754729,"Approved","OW293"
"2023-05-08 06:00",8.58145830394357,"Approved","OW293"
"2023-05-08 07:00",8.57665226033985,"Approved","OW293"
"2023-05-08 08:00",8.57224621673613,"Approved","OW293"
"2023-05-08 09:00",8.56884017313241,"Approved","OW293"
"2023-05-08 10:00",8.5652341295287,"Approved","OW293"
"2023-05-08 11:00",8.56262808592498,"Approved","OW293"
"2023-05-08 12:00",8.57482204232126,"Approved","OW293"
"2023-05-08 13:00",8.57521599871754,"Approved","OW293"
"2023-05-08 14:00",8.56820995511382,"Approved","OW293"
"2023-05-08 15:00",8.5754039115101,"Approved","OW293"
"2023-05-08 16:00",8.59169786790638,"Approved","OW293"
"2023-05-08 17:00",8.58319182430266,"Approved","OW293"
"2023-05-08 18:00",8.58408578069894,"Approved","OW293"
"2023-05-08 19:00",8.58167973709522,"Approved","OW293"
"2023-05-08 20:00",8.5847736934915,"Approved","OW293"
"2023-05-08 21:00",8.58266764988779,"Approved","OW293"
"2023-05-08 22:00",8.58246160628407,"Approved","OW293"
"2023-05-08 23:00",8.57705556268035,"Approved","OW293"
"2023-05-09 00:00",8.57564951907663,"Approved","OW293"
"2023-05-09 01:00",8.58084347547291,"Approved","OW293"
"2023-05-09 02:00",8.58203743186919,"Approved","OW293"
"2023-05-09 03:00",8.57123138826547,"Approved","OW293"
"2023-05-09 04:00",8.56462534466175,"Approved","OW293"
"2023-05-09 05:00",8.56151930105803,"Approved","OW293"
"2023-05-09 06:00",8.56441325745431,"Approved","OW293"
"2023-05-09 07:00",8.56330721385059,"Approved","OW293"
"2023-05-09 08:00",8.55880117024688,"Approved","OW293"
"2023-05-09 09:00",8.55569512664315,"Approved","OW293"
"2023-05-09 10:00",8.55238908303943,"Approved","OW293"
"2023-05-09 11:00",8.55028303943572,"Approved","OW293"
"2023-05-09 12:00",8.573476995832,"Approved","OW293"
"2023-05-09 13:00",8.57217095222828,"Approved","OW293"
"2023-05-09 14:00",8.56426490862456,"Approved","OW293"
"2023-05-09 15:00",8.58195886502084,"Approved","OW293"
"2023-05-09 16:00",8.57565282141712,"Approved","OW293"
"2023-05-09 17:00",8.5699467778134,"Approved","OW293"
"2023-05-09 18:00",8.57094073420968,"Approved","OW293"
"2023-05-09 19:00",8.56473469060596,"Approved","OW293"
"2023-05-09 20:00",8.57092864700224,"Approved","OW293"
"2023-05-09 21:00",8.56562260339853,"Approved","OW293"
"2023-05-09 22:00",8.56771655979481,"Approved","OW293"
"2023-05-09 23:00",8.56091051619109,"Approved","OW293"
"2023-05-10 00:00",8.55790447258737,"Approved","OW293"
"2023-05-10 01:00",8.55249842898365,"Approved","OW293"
"2023-05-10 02:00",8.54869238537993,"Approved","OW293"
"2023-05-10 03:00",8.57578634177621,"Approved","OW293"
"2023-05-10 04:00",8.56308029817249,"Approved","OW293"
"2023-05-10 05:00",8.55647425456877,"Approved","OW293"
"2023-05-10 06:00",8.57326821096505,"Approved","OW293"
"2023-05-10 07:00",8.56356216736133,"Approved","OW293"
"2023-05-10 08:00",8.56535612375762,"Approved","OW293"
"2023-05-10 09:00",8.55835008015389,"Approved","OW293"
"2023-05-10 10:00",8.55184403655018,"Approved","OW293"
"2023-05-10 11:00",8.54833799294646,"Approved","OW293"
"2023-05-10 12:00",8.56033194934274,"Approved","OW293"
"2023-05-10 13:00",8.55052590573902,"Approved","OW293"
"2023-05-10 14:00",8.5457198621353,"Approved","OW293"
"2023-05-10 15:00",8.55541381853158,"Approved","OW293"
"2023-05-10 16:00",8.56060777492786,"Approved","OW293"
"2023-05-10 17:00",8.56940173132414,"Approved","OW293"
"2023-05-10 18:00",8.56409568772042,"Approved","OW293"
"2023-05-10 19:00",8.5594896441167,"Approved","OW293"
"2023-05-10 20:00",8.55968360051298,"Approved","OW293"
"2023-05-10 21:00",8.55867755690927,"Approved","OW293"
"2023-05-10 22:00",8.55377151330555,"Approved","OW293"
"2023-05-10 23:00",8.55396546970183,"Approved","OW293"
"2023-05-11 00:00",8.55015942609811,"Approved","OW293"
"2023-05-11 01:00",8.54785338249439,"Approved","OW293"
"2023-05-11 02:00",8.54764733889067,"Approved","OW293"
"2023-05-11 03:00",8.55684129528695,"Approved","OW293"
"2023-05-11 04:00",8.55163525168323,"Approved","OW293"
"2023-05-11 05:00",8.56852920807951,"Approved","OW293"
"2023-05-11 06:00",8.55822316447579,"Approved","OW293"
"2023-05-11 07:00",8.55331712087207,"Approved","OW293"
"2023-05-11 08:00",8.55091107726836,"Approved","OW293"
"2023-05-11 09:00",8.54990503366464,"Approved","OW293"
"2023-05-11 10:00",8.54499899006092,"Approved","OW293"
"2023-05-11 11:00",8.5454929464572,"Approved","OW293"
"2023-05-11 12:00",8.57528690285348,"Approved","OW293"
"2023-05-11 13:00",8.56138085924976,"Approved","OW293"
"2023-05-11 14:00",8.55787481564604,"Approved","OW293"
"2023-05-11 15:00",8.55956877204232,"Approved","OW293"
"2023-05-11 16:00",8.5565627284386,"Approved","OW293"
"2023-05-11 17:00",8.55395668483488,"Approved","OW293"
"2023-05-11 18:00",8.55155064123116,"Approved","OW293"
"2023-05-11 19:00",8.54924459762744,"Approved","OW293"
"2023-05-11 20:00",8.54903855402373,"Approved","OW293"
"2023-05-11 21:00",8.54783251042001,"Approved","OW293"
"2023-05-11 22:00",8.54882646681629,"Approved","OW293"
"2023-05-11 23:00",8.54882042321257,"Approved","OW293"
"2023-05-12 00:00",8.54961437960885,"Approved","OW293"
"2023-05-12 01:00",8.54980833600513,"Approved","OW293"
"2023-05-12 02:00",8.57500229240141,"Approved","OW293"
"2023-05-12 03:00",8.58699624879769,"Approved","OW293"
"2023-05-12 04:00",8.57769020519397,"Approved","OW293"
"2023-05-12 05:00",8.57588416159025,"Approved","OW293"
"2023-05-12 06:00",8.57217811798653,"Approved","OW293"
"2023-05-12 07:00",8.57057207438281,"Approved","OW293"
"2023-05-12 08:00",8.5691660307791,"Approved","OW293"
"2023-05-12 09:00",8.56905998717538,"Approved","OW293"
"2023-05-12 10:00",8.56835394357166,"Approved","OW293"
"2023-05-12 11:00",8.56724789996794,"Approved","OW293"
"2023-05-12 12:00",8.59074185636422,"Approved","OW293"
"2023-05-12 13:00",8.5819358127605,"Approved","OW293"
"2023-05-12 14:00",8.58512976915678,"Approved","OW293"
"2023-05-12 15:00",8.59212372555306,"Approved","OW293"
"2023-05-12 16:00",8.60011768194934,"Approved","OW293"
"2023-05-12 17:00",8.60601163834562,"Approved","OW293"
"2023-05-12 18:00",8.5999055947419,"Approved","OW293"
"2023-05-12 19:00",8.59589955113819,"Approved","OW293"
"2023-05-12 20:00",8.59059350753447,"Approved","OW293"
"2023-05-12 21:00",8.59078746393075,"Approved","OW293"
"2023-05-12 22:00",8.58948142032703,"Approved","OW293"
"2023-05-12 23:00",8.58657537672331,"Approved","OW293"
"2023-05-13 00:00",8.59166933311959,"Approved","OW293"
"2023-05-13 01:00",8.60526328951587,"Approved","OW293"
"2023-05-13 02:00",8.64205724591215,"Approved","OW293"
"2023-05-13 03:00",8.64895120230843,"Approved","OW293"
"2023-05-13 04:00",8.66504515870471,"Approved","OW293"
"2023-05-13 05:00",8.67773911510099,"Approved","OW293"
"2023-05-13 06:00",8.66373307149727,"Approved","OW293"
"2023-05-13 07:00",8.65672702789356,"Approved","OW293"
"2023-05-13 08:00",8.65182098428984,"Approved","OW293"
"2023-05-13 09:00",8.64721494068612,"Approved","OW293"
"2023-05-13 10:00",8.6449088970824,"Approved","OW293"
"2023-05-13 11:00",8.64200285347868,"Approved","OW293"
"2023-05-13 12:00",8.67849680987496,"Approved","OW293"
"2023-05-13 13:00",8.65949076627124,"Approved","OW293"
"2023-05-13 14:00",8.64958472266752,"Approved","OW293"
"2023-05-13 15:00",8.6462786790638,"Approved","OW293"
"2023-05-13 16:00",8.65547263546008,"Approved","OW293"
"2023-05-13 17:00",8.66776659185637,"Approved","OW293"
"2023-05-13 18:00",8.65626054825265,"Approved","OW293"
"2023-05-13 19:00",8.65665450464892,"Approved","OW293"
"2023-05-13 20:00",8.65254846104521,"Approved","OW293"
"2023-05-13 21:00",8.65944241744149,"Approved","OW293"
"2023-05-13 22:00",8.66913637383777,"Approved","OW293"
"2023-05-13 23:00",8.67193033023405,"Approved","OW293"
"2023-05-14 00:00",8.67632428663033,"Approved","OW293"
"2023-05-14 01:00",8.67821824302661,"Approved","OW293"
"2023-05-14 02:00",8.67951219942289,"Approved","OW293"
"2023-05-14 03:00",8.69450615581917,"Approved","OW293"
"2023-05-14 04:00",8.69240011221545,"Approved","OW293"
"2023-05-14 05:00",8.72289406861174,"Approved","OW293"
"2023-05-14 06:00",8.72318802500801,"Approved","OW293"
"2023-05-14 07:00",8.7147819814043,"Approved","OW293"
"2023-05-14 08:00",8.70997593780058,"Approved","OW293"
"2023-05-14 09:00",8.70606989419686,"Approved","OW293"
"2023-05-14 10:00",8.70296385059314,"Approved","OW293"
"2023-05-14 11:00",8.70405780698942,"Approved","OW293"
"2023-05-14 12:00",8.6997517633857,"Approved","OW293"
"2023-05-14 13:00",8.69774571978198,"Approved","OW293"
"2023-05-14 14:00",8.71633967617826,"Approved","OW293"
"2023-05-14 15:00",8.70853363257454,"Approved","OW293"
"2023-05-14 16:00",8.70542758897082,"Approved","OW293"
"2023-05-14 17:00",8.7104215453671,"Approved","OW293"
"2023-05-14 18:00",8.71751550176339,"Approved","OW293"
"2023-05-14 19:00",8.72020945815967,"Approved","OW293"
"2023-05-14 20:00",8.77420341455595,"Approved","OW293"
"2023-05-14 21:00",8.78289737095223,"Approved","OW293"
"2023-05-14 22:00",8.77629132734851,"Approved","OW293"
"2023-05-14 23:00",8.78518528374479,"Approved","OW293"
"2023-05-15 00:00",8.87337924014107,"Approved","OW293"
"2023-05-15 01:00",8.89797319653735,"Approved","OW293"
"2023-05-15 02:00",8.86966715293363,"Approved","OW293"
"2023-05-15 03:00",8.85186110932991,"Approved","OW293"
"2023-05-15 04:00",8.85575506572619,"Approved","OW293"
"2023-05-15 05:00",8.84324902212247,"Approved","OW293"
"2023-05-15 06:00",8.85284297851876,"Approved","OW293"
"2023-05-15 07:00",8.84063693491504,"Approved","OW293"
"2023-05-15 08:00",8.82953089131132,"Approved","OW293"
"2023-05-15 09:00",8.8233248477076,"Approved","OW293"
"2023-05-15 10:00",8.81641880410388,"Approved","OW293"
"2023-05-15 11:00",8.80991276050016,"Approved","OW293"
"2023-05-15 12:00",8.80450671689644,"Approved","OW293"
"2023-05-15 13:00",8.80830067329272,"Approved","OW293"
"2023-05-15 14:00",8.807794629689,"Approved","OW293"
"2023-05-15 15:00",8.81258858608528,"Approved","OW293"
"2023-05-15 16:00",8.81928254248156,"Approved","OW293"
"2023-05-15 17:00",8.83187649887785,"Approved","OW293"
"2023-05-15 18:00",8.81917045527413,"Approved","OW293"
"2023-05-15 19:00",8.81096441167041,"Approved","OW293"
"2023-05-15 20:00",8.82035836806669,"Approved","OW293"
"2023-05-15 21:00",8.81835232446297,"Approved","OW293"
"2023-05-15 22:00",8.82084628085925,"Approved","OW293"
"2023-05-15 23:00",8.83134023725553,"Approved","OW293"
"2023-05-16 00:00",8.84343419365181,"Approved","OW293"
"2023-05-16 01:00",8.84952815004809,"Approved","OW293"
"2023-05-16 02:00",8.86432210644437,"Approved","OW293"
"2023-05-16 03:00",8.85771606284065,"Approved","OW293"
"2023-05-16 04:00",8.85181001923694,"Approved","OW293"
"2023-05-16 05:00",8.84730397563322,"Approved","OW293"
"2023-05-16 06:00",8.8519979320295,"Approved","OW293"
"2023-05-16 07:00",8.84499188842578,"Approved","OW293"
"2023-05-16 08:00",8.84458584482206,"Approved","OW293"
"2023-05-16 09:00",8.84057980121834,"Approved","OW293"
"2023-05-16 10:00",8.83777375761462,"Approved","OW293"
"2023-05-16 11:00",8.8336677140109,"Approved","OW293"
"2023-05-16 12:00",8.85616167040718,"Approved","OW293"
"2023-05-16 13:00",8.84495562680346,"Approved","OW293"
"2023-05-16 14:00",8.84044958319974,"Approved","OW293"
"2023-05-16 15:00",8.85144353959602,"Approved","OW293"
"2023-05-16 16:00",8.85953749599231,"Approved","OW293"
"2023-05-16 17:00",8.86013145238859,"Approved","OW293"
"2023-05-16 18:00",8.85692540878487,"Approved","OW293"
"2023-05-16 19:00",8.84921936518115,"Approved","OW293"
"2023-05-16 20:00",8.84381332157743,"Approved","OW293"
"2023-05-16 21:00",8.84020727797371,"Approved","OW293"
"2023-05-16 22:00",8.83460123436999,"Approved","OW293"
"2023-05-16 23:00",8.82969519076627,"Approved","OW293"
"2023-05-17 00:00",8.83108914716255,"Approved","OW293"
"2023-05-17 01:00",8.82938310355883,"Approved","OW293"
"2023-05-17 02:00",8.88477705995511,"Approved","OW293"
"2023-05-17 03:00",8.8961710163514,"Approved","OW293"
"2023-05-17 04:00",8.87706497274768,"Approved","OW293"
"2023-05-17 05:00",8.87165892914396,"Approved","OW293"
"2023-05-17 06:00",8.88065288554024,"Approved","OW293"
"2023-05-17 07:00",8.86954684193652,"Approved","OW293"
"2023-05-17 08:00",8.8620407983328,"Approved","OW293"
"2023-05-17 09:00",8.85503475472908,"Approved","OW293"
"2023-05-17 10:00",8.84942871112536,"Approved","OW293"
"2023-05-17 11:00",8.85452266752164,"Approved","OW293"
"2023-05-17 12:00",8.88291662391792,"Approved","OW293"
"2023-05-17 13:00",8.8635105803142,"Approved","OW293"
"2023-05-17 14:00",8.85360453671048,"Approved","OW293"
"2023-05-17 15:00",8.85389849310677,"Approved","OW293"
"2023-05-17 16:00",8.86289244950305,"Approved","OW293"
"2023-05-17 17:00",8.86308640589933,"Approved","OW293"
"2023-05-17 18:00",8.87338036229561,"Approved","OW293"
"2023-05-17 19:00",8.91437431869189,"Approved","OW293"
"2023-05-17 20:00",8.89366827508817,"Approved","OW293"
"2023-05-17 21:00",8.88016223148445,"Approved","OW293"
"2023-05-17 22:00",8.86985618788073,"Approved","OW293"
"2023-05-17 23:00",8.86025014427701,"Approved","OW293"
"2023-05-18 00:00",8.90054410067329,"Approved","OW293"
"2023-05-18 01:00",8.90633805706957,"Approved","OW293"
"2023-05-18 02:00",8.89903201346585,"Approved","OW293"
"2023-05-18 03:00",8.91692596986213,"Approved","OW293"
"2023-05-18 04:00",8.91791992625842,"Approved","OW293"
"2023-05-18 05:00",8.9209138826547,"Approved","OW293"
"2023-05-18 06:00",8.91660783905098,"Approved","OW293"
"2023-05-18 07:00",8.91030179544726,"Approved","OW293"
"2023-05-18 08:00",8.90509575184354,"Approved","OW293"
"2023-05-18 09:00",8.90048970823982,"Approved","OW293"
"2023-05-18 10:00",8.8919836646361,"Approved","OW293"
"2023-05-18 11:00",8.88927762103238,"Approved","OW293"
"2023-05-18 12:00",8.91217157742866,"Approved","OW293"
"2023-05-18 13:00",8.89436553382494,"Approved","OW293"
"2023-05-18 14:00",8.88775949022122,"Approved","OW293"
"2023-05-18 15:00",8.88985344661751,"Approved","OW293"
"2023-05-18 16:00",8.89044740301379,"Approved","OW293"
"2023-05-18 17:00",8.88294135941007,"Approved","OW293"
"2023-05-18 18:00",8.87763531580635,"Approved","OW293"
"2023-05-18 19:00",8.87462927220263,"Approved","OW293"
"2023-05-18 20:00",8.87032322859891,"Approved","OW293"
"2023-05-18 21:00",8.86661718499519,"Approved","OW293"
"2023-05-18 22:00",8.87271114139147,"Approved","OW293"
"2023-05-18 23:00",8.88770509778775,"Approved","OW293"
"2023-05-19 00:00",8.89269905418403,"Approved","OW293"
"2023-05-19 01:00",8.91989301058031,"Approved","OW293"
"2023-05-19 02:00",8.9566869669766,"Approved","OW293"
"2023-05-19 03:00",8.93368092337288,"Approved","OW293"
"2023-05-19 04:00",8.92657487976916,"Approved","OW293"
"2023-05-19 05:00",8.91446883616544,"Approved","OW293"
"2023-05-19 06:00",8.91566279256172,"Approved","OW293"
"2023-05-19 07:00",8.904156748958,"Approved","OW293"
"2023-05-19 08:00",8.89855070535428,"Approved","OW293"
"2023-05-19 09:00",8.89084466175056,"Approved","OW293"
"2023-05-19 10:00",8.88603861814684,"Approved","OW293"
"2023-05-19 11:00",8.88183257454312,"Approved","OW293"
"2023-05-19 12:00",8.8940265309394,"Approved","OW293"
"2023-05-19 13:00",8.89462048733568,"Approved","OW293"
"2023-05-19 14:00",8.88781444373196,"Approved","OW293"
"2023-05-19 15:00",8.90710840012825,"Approved","OW293"
"2023-05-19 16:00",8.90210235652453,"Approved","OW293"
"2023-05-19 17:00",8.91229631292081,"Approved","OW293"
"2023-05-19 18:00",8.91509026931709,"Approved","OW293"
"2023-05-19 19:00",8.92108422571337,"Approved","OW293"
"2023-05-19 20:00",8.91557818210965,"Approved","OW293"
"2023-05-19 21:00",8.92717213850593,"Approved","OW293"
"2023-05-19 22:00",8.92686609490221,"Approved","OW293"
"2023-05-19 23:00",8.92126005129849,"Approved","OW293"
"2023-05-20 00:00",8.91845400769478,"Approved","OW293"
"2023-05-20 01:00",8.91664796409105,"Approved","OW293"
"2023-05-20 02:00",8.93494192048733,"Approved","OW293"
"2023-05-20 03:00",8.93943587688362,"Approved","OW293"
"2023-05-20 04:00",8.9272298332799,"Approved","OW293"
"2023-05-20 05:00",8.91672378967618,"Approved","OW293"
"2023-05-20 06:00",8.91071774607246,"Approved","OW293"
"2023-05-20 07:00",8.90801170246874,"Approved","OW293"
"2023-05-20 08:00",8.90330565886502,"Approved","OW293"
"2023-05-20 09:00",8.9002996152613,"Approved","OW293"
"2023-05-20 10:00",8.89699357165758,"Approved","OW293"
"2023-05-20 11:00",8.89228752805387,"Approved","OW293"
"2023-05-20 12:00",8.89768148445014,"Approved","OW293"
"2023-05-20 13:00",8.89507544084642,"Approved","OW293"
"2023-05-20 14:00",8.89106939724271,"Approved","OW293"
"2023-05-20 15:00",8.92066335363899,"Approved","OW293"
"2023-05-20 16:00",8.94045731003527,"Approved","OW293"
"2023-05-20 17:00",8.98375126643155,"Approved","OW293"
"2023-05-20 18:00",8.97424522282783,"Approved","OW293"
"2023-05-20 19:00",8.98473917922411,"Approved","OW293"
"2023-05-20 20:00",8.96863313562039,"Approved","OW293"
"2023-05-20 21:00",8.95382709201667,"Approved","OW293"
"2023-05-20 22:00",8.94292104841295,"Approved","OW293"
"2023-05-20 23:00",8.92961500480923,"Approved","OW293"
"2023-05-21 00:00",8.92550896120551,"Approved","OW293"
"2023-05-21 01:00",8.9141029176018,"Approved","OW293"
"2023-05-21 02:00",8.90569687399808,"Approved","OW293"
"2023-05-21 03:00",8.92349083039436,"Approved","OW293"
"2023-05-21 04:00",8.91528478679064,"Approved","OW293"
"2023-05-21 05:00",8.90847874318692,"Approved","OW293"
"2023-05-21 06:00",8.9020726995832,"Approved","OW293"
"2023-05-21 07:00",8.91146665597948,"Approved","OW293"
"2023-05-21 08:00",8.90166061237576,"Approved","OW293"
"2023-05-21 09:00",8.89535456877204,"Approved","OW293"
"2023-05-21 10:00",8.89074852516832,"Approved","OW293"
"2023-05-21 11:00",8.9106424815646,"Approved","OW293"
"2023-05-21 12:00",8.89623643796089,"Approved","OW293"
"2023-05-21 13:00",8.89213039435717,"Approved","OW293"
"2023-05-21 14:00",8.88532435075345,"Approved","OW293"
"2023-05-21 15:00",8.88941830714973,"Approved","OW293"
"2023-05-21 16:00",8.88801226354601,"Approved","OW293"
"2023-05-21 17:00",8.88540621994229,"Approved","OW293"
"2023-05-21 18:00",8.88060017633857,"Approved","OW293"
"2023-05-21 19:00",8.87789413273485,"Approved","OW293"
"2023-05-21 20:00",8.88918808913113,"Approved","OW293"
"2023-05-21 21:00",8.88238204552741,"Approved","OW293"
"2023-05-21 22:00",8.88387600192369,"Approved","OW293"
"2023-05-21 23:00",8.88096995831997,"Approved","OW293"
"2023-05-22 00:00",8.88116391471626,"Approved","OW293"
"2023-05-22 01:00",8.87775787111254,"Approved","OW293"
"2023-05-22 02:00",8.88295182750882,"Approved","OW293"
"2023-05-22 03:00",8.9131457839051,"Approved","OW293"
"2023-05-22 04:00",8.90013974030138,"Approved","OW293"
"2023-05-22 05:00",8.88963369669766,"Approved","OW293"
"2023-05-22 06:00",8.88632765309394,"Approved","OW293"
"2023-05-22 07:00",8.88822160949022,"Approved","OW293"
"2023-05-22 08:00",8.8813155658865,"Approved","OW293"
"2023-05-22 09:00",8.87860952228278,"Approved","OW293"
"2023-05-22 10:00",8.87630347867906,"Approved","OW293"
"2023-05-22 11:00",8.87179743507535,"Approved","OW293"
"2023-05-22 12:00",8.86859139147163,"Approved","OW293"
"2023-05-22 13:00",8.86498534786791,"Approved","OW293"
"2023-05-22 14:00",8.86427930426419,"Approved","OW293"
"2023-05-22 15:00",8.88347326066047,"Approved","OW293"
"2023-05-22 16:00",8.87426721705675,"Approved","OW293"
"2023-05-22 17:00",8.90036117345303,"Approved","OW293"
"2023-05-22 18:00",8.88785512984931,"Approved","OW293"
"2023-05-22 19:00",8.90234908624559,"Approved","OW293"
"2023-05-22 20:00",8.89184304264187,"Approved","OW293"
"2023-05-22 21:00",8.88703699903815,"Approved","OW293"
"2023-05-22 22:00",8.90883095543443,"Approved","OW293"
"2023-05-22 23:00",8.97572491183071,"Approved","OW293"
"2023-05-23 00:00",8.969518868227,"Approved","OW293"
"2023-05-23 01:00",8.96731282462328,"Approved","OW293"
"2023-05-23 02:00",8.96270678101956,"Approved","OW293"
"2023-05-23 03:00",8.95520073741584,"Approved","OW293"
"2023-05-23 04:00",8.94639469381212,"Approved","OW293"
"2023-05-23 05:00",8.9338886502084,"Approved","OW293"
"2023-05-23 06:00",8.93018260660468,"Approved","OW293"
"2023-05-23 07:00",8.92507656300096,"Approved","OW293"
"2023-05-23 08:00",8.91857051939724,"Approved","OW293"
"2023-05-23 09:00",8.91426447579352,"Approved","OW293"
"2023-05-23 10:00",8.9087584321898,"Approved","OW293"
"2023-05-23 11:00",8.90215238858609,"Approved","OW293"
"2023-05-23 12:00",8.89684634498237,"Approved","OW293"
"2023-05-23 13:00",8.90074030137865,"Approved","OW293"
"2023-05-23 14:00",8.90693425777493,"Approved","OW293"
"2023-05-23 15:00",8.90242821417121,"Approved","OW293"
"2023-05-23 16:00",8.89642217056749,"Approved","OW293"
"2023-05-23 17:00",8.90131612696377,"Approved","OW293"
"2023-05-23 18:00",8.90531008336005,"Approved","OW293"
"2023-05-23 19:00",8.91100403975633,"Approved","OW293"
"2023-05-23 20:00",8.90999799615261,"Approved","OW293"
"2023-05-23 21:00",8.90229195254889,"Approved","OW293"
"2023-05-23 22:00",8.89928590894517,"Approved","OW293"
"2023-05-23 23:00",8.89357986534146,"Approved","OW293"
"2023-05-24 00:00",8.89287382173774,"Approved","OW293"
"2023-05-24 01:00",8.89176777813402,"Approved","OW293"
"2023-05-24 02:00",8.8833617345303,"Approved","OW293"
"2023-05-24 03:00",8.92665569092658,"Approved","OW293"
"2023-05-24 04:00",8.90454964732286,"Approved","OW293"
"2023-05-24 05:00",8.89374360371914,"Approved","OW293"
"2023-05-24 06:00",8.88763756011542,"Approved","OW293"
"2023-05-24 07:00",8.8839315165117,"Approved","OW293"
"2023-05-24 08:00",8.90012547290798,"Approved","OW293"
"2023-05-24 09:00",8.88871942930427,"Approved","OW293"
"2023-05-24 10:00",8.88211338570055,"Approved","OW293"
"2023-05-24 11:00",8.87660734209683,"Approved","OW293"
"2023-05-24 12:00",8.89870129849311,"Approved","OW293"
"2023-05-24 13:00",8.88299525488939,"Approved","OW293"
"2023-05-24 14:00",8.88248921128567,"Approved","OW293"
"2023-05-24 15:00",8.87798316768195,"Approved","OW293"
"2023-05-24 16:00",8.88557712407823,"Approved","OW293"
"2023-05-24 17:00",8.88437108047451,"Approved","OW293"
"2023-05-24 18:00",8.88016503687079,"Approved","OW293"
"2023-05-24 19:00",8.87745899326707,"Approved","OW293"